www.pogodaiklimat.ru
Время
и дата
05:53 26.10
06:53 26.10
07:53 26.10
08:53 26.10
09:53 26.10
10:53 26.10
11:53 26.10
12:53 26.10
13:53 26.10
14:53 26.10
15:53 26.10
16:53 26.10
17:53 26.10
18:53 26.10
19:53 26.10
20:53 26.10
21:53 26.10
22:53 26.10
23:53 26.10
00:53 27.10
01:53 27.10
02:53 27.10
03:53 27.10
04:53 27.10
05:53 27.10
06:53 27.10
07:53 27.10
08:53 27.10
09:53 27.10
10:53 27.10
11:53 27.10
12:53 27.10
13:53 27.10
14:53 27.10
15:53 27.10
16:53 27.10
17:53 27.10
18:53 27.10
19:53 27.10
20:53 27.10
21:53 27.10
22:53 27.10
23:53 27.10
00:53 28.10
01:53 28.10
02:53 28.10
03:53 28.10
04:53 28.10
Ветер
(напр.,м/с)
Видим. Явления Облачность Т
(С)
Тd
(С)
f
(%)
Тe
(С)
Тes
(С)
Комфортность P
(гПа)
Po
(гПа)
Тmin
(С)
Tmax
(С)
R
(мм)
R24
(мм)
S
(см)
З 2 16 км ясно -9.4 -11.7 83 -17 -17 1030.9 996.0 -11.1 -4.4
З 2 16 км ясно -10.6 -12.8 84 -18 -18 1031.1 996.0
ЮЗ 1 16 км ясно -10.6 -12.8 84 -15 -15 1031.4 996.3
ЮЗ 2 16 км ясно -9.4 -12.2 80 -16 -16 1031.7 996.7
З 2 16 км ясно -7.8 -11.7 74 -14 -14 1031.1 996.3
ЮЗ 2 16 км ясно -5.6 -10.0 71 -12 -10 1031.0 996.3
ЮЗ 2 16 км ясно -5.6 -9.4 75 -12 -9 1030.7 996.0 -11.7 -5.6
ЮЗ 2 16 км ясно -4.4 -9.4 68 -11 -8 1029.6 995.0
ЮЗ 3 16 км ясно -3.9 -10.6 60 -11 -9 1028.6 994.0
ЮЗ 3 16 км ясно -3.9 -10.6 60 -11 -9 1027.9 993.4
ЮЗ 4 16 км ясно -5.0 -12.2 57 -13 -13 1028.2 993.4
Ю 4 16 км ясно -5.6 -11.7 62 -15 -15 1028.1 993.4
Ю 4 16 км ясно -6.7 -11.1 71 -16 -16 1027.6 992.7 -6.7 -3.9
Ю 4 16 км ясно -7.8 -11.7 74 -17 -17 1028.0 993.0
Ю 3 16 км ясно -8.3 -12.8 70 -16 -16 1027.5 992.4
Ю 3 16 км ясно -9.4 -13.3 73 -18 -18 1027.1 992.1
Ю 3 16 км ясно -10.0 -13.9 73 -18 -18 1026.2 991.4
Ю 4 16 км ясно -10.0 -13.9 73 -20 -20 1025.5 990.8
Ю 4 16 км ясно -10.0 -14.4 70 -20 -20 1024.8 990.1 -10.0 -6.7
Ю 3 16 км ясно -11.1 -15.0 73 -20 -20 1024.8 990.1
Ю 3 16 км ясно -10.6 -14.4 74 -20 -20 1023.6 989.1
Ю 3
{5}
16 км ясно -10.6 -14.4 74 -20 -20 1022.9 988.5
Ю 3 16 км ясно -10.0 -14.4 70 -19 -19 1021.7 987.1
Ю 4 16 км ясно -10.6 -14.4 74 -20 -20 1021.5 986.8
Ю 3 16 км ясно -10.6 -13.9 77 -19 -19 1020.3 985.8 -11.7 -10.0
Ю 4 16 км ясно -10.6 -13.9 77 -20 -20 1019.6 984.9
Ю 3 16 км ясно -10.0 -13.3 77 -19 -19 1019.4 984.9
Ю 4 16 км ясно -9.4 -12.8 76 -19 -19 1018.5 983.9
Ю 4 16 км ясно -7.2 -11.7 70 -17 -17 1018.1 983.5
Ю 4 16 км ясно -5.6 -10.0 71 -15 -14 1017.0 982.6
Ю 4 16 км 2/0 3600 м
[Ac]
-3.9 -8.9 68 -13 -13 1015.7 981.6 -10.6 -3.9
Ю 4 16 км 8/0 2700 м
[Ac]
-3.3 -8.3 68 -12 -12 1014.0 979.9
Ю 5 16 км 10/0 2100 м
[Ac]
-3.3 -8.3 68 -13 -13 1012.3 978.0
Ю 4
{7}
16 км 10/10 1800 м -2.8 -7.2 72 -12 -12 1011.6 977.6
Ю 4 16 км 10/10 1650 м -2.2 -7.2 69 -10 -10 1011.0 977.0
Ю 4
{6}
16 км 10/10 1800 м -1.1 -7.2 63 -9 -9 1009.5 975.3
Ю 4 16 км 10/10 1800 м -0.6 -6.1 66 -8 -8 1009.2 975.3 -3.9 -0.6
ЮЗ 4 16 км 10/10 1500 м 0.0 -5.6 66 -8 -8 1008.8 975.0
ЮЗ 4
{6}
16 км 10/10 1350 м 0.0 -4.4 72 -7 -7 1008.6 974.7
ЮЗ 3 16 км 10/10 1170 м +0.6 -3.9 72 -6 -6 1008.1 974.4
ЮЗ 3 16 км 10/10 1200 м +1.1 -3.3 72 -5 -5 1008.3 974.7
ЮЗ 3 16 км 2/2 1230 м 0.0 -3.3 78 -6 -6 1008.6 974.7
ЮЗ 2 16 км ясно -0.6 -3.3 82 -7 -7 1008.7 975.0 -0.6 +1.1
ЮЗ 2 16 км ясно -0.6 -3.3 82 -7 -7 1009.2 975.3
ЮЗ 2 16 км ясно +0.6 -2.2 81 -5 -5 1008.8 975.0
Ю 2 16 км ясно 0.0 -2.2 85 -6 -6 1008.5 974.7
Ю 2 16 км 2/0 3600 м
[Ac]
+0.6 -1.7 85 -5 -5 1008.4 974.7
Ю 2 16 км 8/0 3300 м
[Ac]
+1.7 -1.1 82 -3 -3 1008.6 975.0
Местоположение метеостанции Hector International Airport: широта 46.9253 долгота -96.8111 высота над уровнем моря 274 м.
В архиве по умолчанию представлена погода в Фарго за последние 1-2 суток. Обновление информации о фактической погоде в базе происходит ежечасно! Архивные данные за месяц целиком и за предыдущие месяцы Вы можете получить, выбрав интересующий диапазон дат из раскрывающегося списка и нажав кнопку "Ввод!".
Внимание! Архив погоды МЕТАР в базе сайта по станциям, не включенным в климатический монитор, хранится не более 60 дней. Нет смысла пытаться выбрать более раннюю дату.
*Определитесь, кто Вы:
Внимание! Время в таблицах - местное (без учета летнего времени). Для получения всемирного времени необходимо вычесть поправку, которая равна -6 ч.
Смотрите также архив погоды в соседних городах и на ближайших метеорологических станциях:
Партнеры нашего сайта:      
Пояснения к столбцам:
  • Ветер - указаны скорость ветра в м/с - средняя за 10 мин, порывы в срок и между сроками (в фигурных скобках) и направление, откуда дует ветер: С - северный,
  • СВ - северо-восточный, В - восточный, ЮВ - юго-восточный, Ю - южный, ЮЗ - юго-западный, З - западный, СЗ - северо-западный.
  • Видимость - горизонтальная дальность видимости в метрах или километрах. При видимости от 1 до 10 км при отсутствии осадков обычно наблюдается дымка, при ухудшении видимости до 1 км и менее - туман. В сухую погоду видимость может ухудшаться дымом, пылью или мглою.
  • Явления - указаны атмосферные явления, наблюдавшиеся в срок или в последний час перед сроком; фигурными скобками обозначены явления, наблюдавшиеся между сроками (за 1-3 часа до срока); квадратными скобками обозначены град или гололедные отложения с указанием их диаметра в мм.
  • Облачность - указаны через наклонную черту общая и нижняя облачность в баллах и высота нижней границы облаков в метрах; квадратными скобками обозначены формы облаков: Ci - перистые, Cs - перисто-слоистые, Cc - перисто-кучевые, Ac - высококучевые, As - высокослоистые, Sc - слоисто-кучевые, Ns - слоисто-дождевые, Cu - кучевые, Cb - кучево-дождевые. Подробнее классификацию облаков см. в Атласе облаков (PDF).
  • T - Температура воздуха - температура, измеренная на высоте 2 м над землей.
  • Td - Температура точки росы - температура, при понижении до которой содержащийся в воздухе водяной пар достигнет насыщения.
  • f - Относительная влажность воздуха - влажноcть воздуха, измеренная на высоте 2 м над землей.
  • Te - Эффективная температура - температура, которую ощущает одетый по сезону человек в тени. Характеристика душности погоды. При расчете учитывается влияние влажности воздуха и скорости ветра на теплоощущения человека.
  • Tes - Эффективная температура на солнце - температура, которую ощущает человек, с поправкой на солнечный нагрев. Характеристика знойности погоды. Зависит от высоты солнца над горизонтом, облачности и скорости ветра. Ночью, в пасмурную погоду, а также при ветре 12 м/с и более поправка равна нулю.
  • P - Атмосферное давление - приведенное к уровню моря атмосферное давление.
  • Po - Атмосферное давление - измеренное на уровне метеостанции атмосферное давление.
  • Tmin - Минимальная температура - минимум температуры воздуха на высоте 2 м над землей.
  • Tmax - Максимальная температура - максимум температуры воздуха на высоте 2 м над землей.
  • R - Количество осадков - Количество выпавших осадков за период времени, мм. При наведении курсора мыши на число - период времени, за который выпало указанное количество осадков.
  • R24 - Количество осадков - Количество выпавших осадков за 24 часа, мм.
  • S - Снежный покров - Высота снежного покрова, см. При наведении курсора мыши на число - состояние снежного покрова и степень покрытия местности в баллах.